When you browse on this site, cookies collect data to enhance your experience and personalize the content and advertising you see.
Visit our Privacy Policy to learn more. By continuing to use the site, you agree to this use of cookies and data.
  • En España
  • Lista de países
  • Para 7 días
  • Temperatura del agua
  • El tiempo en el mapa
  • Informadores
  • user-avatar
    Iniciar sesión

    Tiempo cada hora Puerto Montt

    Hoy, 27 Enero, Lunes

    Tiempo Temperatura Precipitaciones Viento Presión Humedad
    00:00 +10°C° 0 mm 1 mps 764 mmHg 76%
    01:00 +10°C° 0 mm 1 mps 763 mmHg 80%
    02:00 +10°C° 0 mm 1 mps 763 mmHg 80%
    03:00 +10°C° 0 mm 1 mps 763 mmHg 80%
    04:00 +10°C° 0 mm 1 mps 763 mmHg 81%
    05:00 +11°C° 0 mm 1 mps 762 mmHg 74%
    06:00 +13°C° 0 mm 1 mps 762 mmHg 68%
    07:00 +15°C° 0 mm 1 mps 762 mmHg 61%
    08:00 +18°C° 0 mm 1 mps 761 mmHg 55%
    09:00 +20°C° 0 mm 1 mps 761 mmHg 49%
    10:00 +19°C° 0 mm 0 mps 760 mmHg 43%
    11:00 +21°C° 0 mm 1 mps 760 mmHg 45%
    12:00 +22°C° 0 mm 1 mps 760 mmHg 46%
    13:00 +22°C° 0 mm 1 mps 760 mmHg 47%
    14:00 +22°C° 0 mm 1 mps 759 mmHg 52%
    15:00 +21°C° 0 mm 1 mps 759 mmHg 57%
    16:00 +21°C° 0 mm 1 mps 759 mmHg 62%
    17:00 +20°C° 0.1 mm 1 mps 758 mmHg 68%
    18:00 +20°C° 0.1 mm 1 mps 758 mmHg 73%
    19:00 +19°C° 0.1 mm 1 mps 758 mmHg 78%
    20:00 +18°C° 1.5 mm 1 mps 758 mmHg 84%
    21:00 +18°C° 1.5 mm 1 mps 758 mmHg 91%
    22:00 +18°C° 1.5 mm 1 mps 758 mmHg 97%
    23:00 +16°C° 0.5 mm 1 mps 757 mmHg 98%

    Mañana, 28 Enero, Martes

    Tiempo Temperatura Precipitaciones Viento Presión Humedad
    00:00 +16°C° 0.5 mm 2 mps 757 mmHg 98%
    01:00 +16°C° 0.5 mm 2 mps 757 mmHg 99%
    02:00 +16°C° 0.2 mm 2 mps 757 mmHg 98%
    03:00 +15°C° 0.2 mm 2 mps 757 mmHg 98%
    04:00 +14°C° 0.2 mm 2 mps 757 mmHg 97%
    05:00 +14°C° 0.2 mm 2 mps 757 mmHg 96%
    06:00 +13°C° 0.2 mm 3 mps 757 mmHg 96%
    07:00 +13°C° 0.2 mm 3 mps 757 mmHg 95%
    08:00 +13°C° 0.2 mm 3 mps 758 mmHg 93%
    09:00 +13°C° 0.2 mm 3 mps 758 mmHg 90%
    10:00 +13°C° 0.2 mm 4 mps 759 mmHg 87%
    11:00 +14°C° 0 mm 4 mps 759 mmHg 78%
    12:00 +14°C° 0 mm 3 mps 759 mmHg 68%
    13:00 +16°C° 0 mm 3 mps 760 mmHg 58%
    14:00 +17°C° 0 mm 3 mps 760 mmHg 55%
    15:00 +17°C° 0 mm 3 mps 760 mmHg 53%
    16:00 +17°C° 0 mm 3 mps 760 mmHg 51%
    17:00 +16°C° 0 mm 3 mps 761 mmHg 57%
    18:00 +14°C° 0 mm 3 mps 761 mmHg 64%
    19:00 +13°C° 0 mm 3 mps 761 mmHg 70%
    20:00 +12°C° 0 mm 3 mps 762 mmHg 74%
    21:00 +11°C° 0 mm 4 mps 762 mmHg 78%
    22:00 +10°C° 0 mm 4 mps 763 mmHg 81%
    23:00 +10°C° 0 mm 4 mps 763 mmHg 83%

    Pasado mañana, 29 Enero, Miércoles

    Tiempo Temperatura Precipitaciones Viento Presión Humedad
    00:00 +8°C° 0 mm 4 mps 763 mmHg 85%
    01:00 +8°C° 0 mm 4 mps 763 mmHg 86%
    02:00 +9°C° 0 mm 3 mps 763 mmHg 87%
    03:00 +8°C° 0 mm 3 mps 763 mmHg 87%
    04:00 +7°C° 0 mm 3 mps 763 mmHg 88%
    05:00 +9°C° 0 mm 3 mps 763 mmHg 82%
    06:00 +10°C° 0 mm 3 mps 763 mmHg 76%
    07:00 +11°C° 0 mm 3 mps 763 mmHg 71%
    08:00 +12°C° 0 mm 4 mps 763 mmHg 65%
    09:00 +13°C° 0 mm 4 mps 763 mmHg 60%
    10:00 +15°C° 0 mm 5 mps 763 mmHg 55%
    11:00 +15°C° 0 mm 5 mps 763 mmHg 53%
    12:00 +16°C° 0 mm 5 mps 762 mmHg 50%
    13:00 +16°C° 0 mm 5 mps 762 mmHg 48%
    14:00 +16°C° 0 mm 5 mps 762 mmHg 47%
    15:00 +17°C° 0 mm 4 mps 762 mmHg 47%
    16:00 +17°C° 0 mm 4 mps 761 mmHg 46%
    17:00 +15°C° 0 mm 4 mps 762 mmHg 53%
    18:00 +14°C° 0 mm 4 mps 762 mmHg 61%
    19:00 +12°C° 0 mm 3 mps 762 mmHg 69%
    20:00 +11°C° 0 mm 3 mps 763 mmHg 75%
    21:00 +10°C° 0 mm 3 mps 763 mmHg 80%
    22:00 +9°C° 0 mm 3 mps 763 mmHg 86%
    23:00 +9°C° 0 mm 2 mps 763 mmHg 88%

    30 Enero, Jueves

    Tiempo Temperatura Precipitaciones Viento Presión Humedad
    00:00 +8°C° 0 mm 2 mps 763 mmHg 89%
    01:00 +8°C° 0 mm 2 mps 763 mmHg 90%
    02:00 +8°C° 0 mm 2 mps 763 mmHg 90%
    03:00 +8°C° 0 mm 2 mps 762 mmHg 90%
    04:00 +8°C° 0 mm 2 mps 762 mmHg 90%
    05:00 +10°C° 0 mm 1 mps 762 mmHg 83%
    06:00 +12°C° 0 mm 1 mps 762 mmHg 76%
    07:00 +13°C° 0 mm 1 mps 761 mmHg 70%
    08:00 +15°C° 0 mm 1 mps 761 mmHg 62%
    09:00 +18°C° 0 mm 1 mps 761 mmHg 54%
    10:00 +21°C° 0 mm 1 mps 761 mmHg 46%
    11:00 +20°C° 0 mm 2 mps 760 mmHg 45%
    12:00 +21°C° 0 mm 2 mps 760 mmHg 45%
    13:00 +23°C° 0 mm 2 mps 760 mmHg 44%
    14:00 +23°C° 0 mm 2 mps 759 mmHg 48%
    15:00 +23°C° 0 mm 2 mps 759 mmHg 53%
    16:00 +21°C° 0 mm 2 mps 759 mmHg 57%
    17:00 +20°C° 0 mm 2 mps 759 mmHg 65%
    18:00 +19°C° 0 mm 1 mps 759 mmHg 72%
    19:00 +18°C° 0 mm 1 mps 759 mmHg 80%
    20:00 +18°C° 0.1 mm 1 mps 759 mmHg 83%
    21:00 +18°C° 0.1 mm 1 mps 760 mmHg 86%
    22:00 +16°C° 0.1 mm 1 mps 760 mmHg 89%
    23:00 +16°C° 0.1 mm 1 mps 759 mmHg 90%

    31 Enero, Viernes

    Tiempo Temperatura Precipitaciones Viento Presión Humedad
    00:00 +16°C° 0.1 mm 1 mps 759 mmHg 91%
    01:00 +16°C° 0.1 mm 1 mps 759 mmHg 92%
    02:00 +16°C° 0 mm 1 mps 759 mmHg 93%
    03:00 +16°C° 0 mm 1 mps 759 mmHg 93%
    04:00 +16°C° 0 mm 1 mps 759 mmHg 94%
    05:00 +16°C° 0 mm 1 mps 759 mmHg 92%
    06:00 +18°C° 0 mm 1 mps 759 mmHg 90%
    07:00 +18°C° 0 mm 1 mps 759 mmHg 89%
    08:00 +20°C° 0 mm 1 mps 759 mmHg 82%
    09:00 +21°C° 0 mm 1 mps 758 mmHg 76%
    10:00 +23°C° 0 mm 1 mps 758 mmHg 69%
    11:00 +23°C° 0 mm 1 mps 758 mmHg 66%
    12:00 +24°C° 0 mm 1 mps 758 mmHg 62%
    13:00 +25°C° 0 mm 1 mps 757 mmHg 59%
    14:00 +24°C° 0.1 mm 2 mps 757 mmHg 65%
    15:00 +23°C° 0.1 mm 2 mps 757 mmHg 70%
    16:00 +21°C° 0.1 mm 3 mps 756 mmHg 75%
    17:00 +20°C° 0 mm 2 mps 756 mmHg 79%
    18:00 +19°C° 0 mm 2 mps 756 mmHg 83%
    19:00 +19°C° 0 mm 1 mps 756 mmHg 87%
    20:00 +19°C° 0 mm 1 mps 756 mmHg 89%
    21:00 +17°C° 0 mm 2 mps 756 mmHg 91%
    22:00 +17°C° 0 mm 2 mps 756 mmHg 92%
    23:00 +17°C° 0 mm 3 mps 755 mmHg 90%

    1 Febrero, Sábado

    Tiempo Temperatura Precipitaciones Viento Presión Humedad
    00:00 +17°C° 0 mm 4 mps 754 mmHg 87%
    01:00 +17°C° 0 mm 5 mps 754 mmHg 85%
    02:00 +16°C° 0.3 mm 5 mps 753 mmHg 88%
    03:00 +16°C° 0.3 mm 5 mps 753 mmHg 92%
    04:00 +16°C° 0.3 mm 5 mps 752 mmHg 95%
    05:00 +16°C° 0.7 mm 5 mps 752 mmHg 96%
    06:00 +16°C° 0.7 mm 5 mps 752 mmHg 96%
    07:00 +16°C° 0.7 mm 5 mps 752 mmHg 96%
    08:00 +15°C° 6.2 mm 4 mps 752 mmHg 97%
    09:00 +14°C° 6.2 mm 3 mps 752 mmHg 97%
    10:00 +14°C° 6.2 mm 2 mps 752 mmHg 98%
    11:00 +14°C° 2.1 mm 2 mps 753 mmHg 97%
    12:00 +14°C° 2.1 mm 2 mps 753 mmHg 97%
    13:00 +14°C° 2.1 mm 1 mps 753 mmHg 96%
    14:00 +14°C° 1 mm 2 mps 754 mmHg 95%
    15:00 +14°C° 1 mm 2 mps 754 mmHg 94%
    16:00 +14°C° 1 mm 2 mps 754 mmHg 94%
    17:00 +14°C° 0.9 mm 2 mps 755 mmHg 94%
    18:00 +13°C° 0.9 mm 2 mps 756 mmHg 95%
    19:00 +12°C° 0.9 mm 3 mps 757 mmHg 95%
    20:00 +12°C° 0.5 mm 2 mps 757 mmHg 95%
    21:00 +10°C° 0.5 mm 2 mps 758 mmHg 95%
    22:00 +10°C° 0.5 mm 2 mps 758 mmHg 95%
    23:00 +9°C° 0.3 mm 2 mps 758 mmHg 96%
    Mostrar más